This demonstration page uses our WeatherBlox Daily Observations layout. Learn more.

Left ArrowRight Arrow

40.92945, -100.16068

Hourly Observations for December 14, 2020

Temp ( °F °C ) Dew Point ( °F °C ) Humidity (%) Winds ( mph kmh ) Pressure ( in mb ) Visibility ( mi km ) Precip ( " mm )
12:15 am 00:15 Clear 14 -10.1 10 -12 86 86 Calm 30.41 1030 10 16.0934 0 0
12:35 am 00:35 Clear 14 -10 11 -11.7 88 88 ENE 3 6 30.41 1030 10 16.0934 0 0
12:55 am 00:55 Clear 14 -10.2 11 -11.7 89 89 Calm 30.41 1030 10 16.0934 0 0
1:15 am 01:15 Clear 12 -11 9 -12.6 88 88 E 3 6 30.41 1030 10 16.0934 0 0
1:35 am 01:35 Clear 12 -11.2 9 -12.9 87 87 Calm 30.4 1030 10 16.0934 0 0
1:55 am 01:55 Clear 13 -10.6 10 -12.3 87 87 Calm 30.39 1029 10 16.0934 0 0
2:15 am 02:15 Clear 11 -11.9 8 -13.6 87 87 W 5 7 30.4 1030 10 16.0934 0 0
2:35 am 02:35 Clear 11 -11.6 8 -13.4 87 87 W 3 6 30.4 1029 10 16.0934 0 0
2:55 am 02:55 Clear 11 -11.5 8 -13.3 87 87 Calm 30.4 1029 10 16.0934 0 0
3:15 am 03:15 Clear 11 -11.8 7 -13.7 86 86 Calm 30.4 1029 10 16.0934 0 0
3:35 am 03:35 Clear 10 -12.3 7 -14.1 87 87 NE 3 6 30.41 1030 10 16.0934 0 0
3:55 am 03:55 Clear 10 -12.4 7 -14.1 87 87 ENE 5 7 30.4 1029 10 16.0934 0 0
4:15 am 04:15 Clear 10 -12.1 7 -13.7 88 88 Calm 30.38 1029 10 16.0934 0 0
4:35 am 04:35 Clear 9 -12.6 6 -14.2 88 88 E 3 6 30.39 1029 10 16.0934 0 0
4:55 am 04:55 Clear 10 -12.2 8 -13.6 89 89 E 3 6 30.39 1029 10 16.0934 0 0
5:15 am 05:15 Clear 11 -11.7 8 -13.1 89 89 E 5 7 30.37 1028 10 16.0934 0 0
5:35 am 05:35 Clear 11 -11.6 8 -13.1 89 89 ESE 3 6 30.38 1029 10 16.0934 0 0
5:55 am 05:55 Clear 11 -11.4 9 -12.8 90 90 Calm 30.39 1029 7 11.26538 0 0
6:15 am 06:15 Clear with Light Snow 12 -11.1 10 -12.5 90 90 ESE 3 6 30.39 1029 5 8.0467 0 0
6:35 am 06:35 Clear 14 -10.1 12 -11.1 92 92 ESE 7 11 30.37 1029 10 16.0934 0 0
6:55 am 06:55 Clear 13 -10.4 11 -11.8 90 90 ESE 5 7 30.38 1029 10 16.0934 0 0
7:15 am 07:15 Partly Cloudy 13 -10.5 11 -11.8 90 90 SE 5 7 30.38 1029 10 16.0934 0 0
7:35 am 07:35 Partly Cloudy 14 -10.1 12 -11.3 91 91 ESE 3 6 30.38 1029 10 16.0934 0 0
7:55 am 07:55 Clear 14 -10.1 12 -11.3 91 91 ESE 6 9 30.37 1029 10 16.0934 0 0
8:15 am 08:15 Mostly Cloudy 14 -10 12 -11.2 91 91 E 9 15 30.37 1028 10 16.0934 0 0
8:35 am 08:35 Cloudy with Mist and Fog 14 -10 12 -11 92 92 ESE 10 17 30.37 1028 2 3.21868 0 0
8:55 am 08:55 Cloudy with Mist and Fog 15 -9.6 13 -10.7 92 92 ESE 9 15 30.37 1028 2 3.21868 0 0
9:15 am 09:15 Cloudy with Mist and Fog 16 -9.1 13 -10.3 91 91 ESE 12 19 30.37 1029 5 8.0467 0 0
9:35 am 09:35 Cloudy 16 -8.9 14 -10.1 91 91 ESE 12 19 30.36 1028 7 11.26538 0 0
9:55 am 09:55 Cloudy 17 -8.5 14 -9.8 90 90 ESE 12 19 30.37 1028 10 16.0934 0 0
10:15 am 10:15 Cloudy 18 -7.9 16 -9.1 91 91 ESE 9 15 30.38 1029 10 16.0934 0 0
10:35 am 10:35 Cloudy 19 -7.5 17 -8.6 92 92 ESE 10 17 30.35 1028 10 16.0934 0 0
10:55 am 10:55 Mostly Cloudy 19 -7 17 -8.2 91 91 ESE 13 20 30.35 1028 10 16.0934 0 0
11:15 am 11:15 Partly Cloudy 20 -6.6 18 -7.8 91 91 ESE 13 20 30.35 1028 10 16.0934 0 0
11:35 am 11:35 Mostly Cloudy 21 -6.3 18 -7.7 90 90 ESE 14 22 30.33 1027 10 16.0934 0 0
11:55 am 11:55 Mostly Cloudy 21 -6 19 -7.5 89 89 ESE 13 20 30.31 1026 10 16.0934 0 0
12:15 pm 12:15 Mostly Cloudy 21 -5.9 19 -7.5 89 89 SE 13 20 30.3 1026 10 16.0934 0 0
12:35 pm 12:35 Cloudy 22 -5.5 19 -7.2 88 88 SE 16 26 30.28 1026 10 16.0934 0 0
12:55 pm 12:55 Cloudy 22 -5.5 19 -7.1 89 89 SE 16 26 30.27 1025 10 16.0934 0 0
1:15 pm 13:15 Cloudy 23 -5.1 20 -6.7 89 89 ESE 13 20 30.26 1025 10 16.0934 0 0
1:35 pm 13:35 Cloudy 23 -5 20 -6.7 88 88 ESE 12 19 30.26 1025 10 16.0934 0 0
1:55 pm 13:55 Cloudy 24 -4.6 20 -6.5 87 87 ESE 14 22 30.24 1024 10 16.0934 0 0
2:15 pm 14:15 Cloudy 24 -4.7 20 -6.5 87 87 ESE 15 24 30.22 1024 10 16.0934 0 0
2:35 pm 14:35 Cloudy 24 -4.7 20 -6.4 88 88 ESE 18 30 30.21 1023 10 16.0934 0 0
2:55 pm 14:55 Cloudy 23 -5 20 -6.7 88 88 ESE 14 22 30.22 1023 10 16.0934 0 0
3:15 pm 15:15 Cloudy 24 -4.7 20 -6.5 87 87 E 14 22 30.2 1023 10 16.0934 0 0
3:35 pm 15:35 Cloudy 23 -5 20 -6.7 88 88 E 15 24 30.22 1023 10 16.0934 0 0
3:55 pm 15:55 Cloudy 23 -4.8 20 -6.5 88 88 E 15 24 30.21 1023 10 16.0934 0 0
4:15 pm 16:15 Cloudy 23 -5 20 -6.8 87 87 E 15 24 30.22 1023 10 16.0934 0 0
4:35 pm 16:35 Cloudy 23 -5.2 19 -7 87 87 E 16 26 30.23 1024 10 16.0934 0 0
4:55 pm 16:55 Cloudy 22 -5.5 19 -7.3 87 87 E 15 24 30.23 1024 10 16.0934 0 0
5:15 pm 17:15 Cloudy 22 -5.5 19 -7 89 89 E 15 24 30.22 1023 10 16.0934 0 0
5:35 pm 17:35 Cloudy 22 -5.5 19 -7 89 89 E 16 26 30.23 1024 10 16.0934 0 0
5:55 pm 17:55 Cloudy 22 -5.5 19 -7 89 89 E 13 20 30.23 1024 10 16.0934 0 0
6:15 pm 18:15 Cloudy 23 -5.2 20 -6.7 89 89 E 14 22 30.23 1024 10 16.0934 0 0
6:35 pm 18:35 Cloudy 23 -5 21 -6.3 91 91 E 13 20 30.22 1023 10 16.0934 0 0
6:55 pm 18:55 Cloudy 24 -4.7 21 -6.1 90 90 E 12 19 30.22 1024 10 16.0934 0 0
7:15 pm 19:15 Cloudy 24 -4.5 21 -6 89 89 E 16 26 30.23 1024 10 16.0934 0 0
7:35 pm 19:35 Cloudy 24 -4.5 22 -5.8 91 91 E 14 22 30.22 1023 10 16.0934 0 0
7:55 pm 19:55 Cloudy 24 -4.5 22 -5.7 91 91 E 15 24 30.23 1024 10 16.0934 0 0
8:15 pm 20:15 Cloudy 24 -4.5 22 -5.7 91 91 E 14 22 30.23 1024 10 16.0934 0 0
8:35 pm 20:35 Cloudy 24 -4.3 22 -5.6 91 91 E 14 22 30.23 1024 10 16.0934 0 0
8:55 pm 20:55 Cloudy 24 -4.3 22 -5.6 91 91 E 14 22 30.23 1024 7 11.26538 0 0
9:15 pm 21:15 Cloudy with Light Snow 24 -4.6 21 -6 90 90 E 13 20 30.24 1024 4 6.43736 0 0
9:35 pm 21:35 Cloudy with Light Snow 23 -4.8 21 -6.1 91 91 E 15 24 30.24 1024 5 8.0467 0 0
9:55 pm 21:55 Cloudy 24 -4.7 21 -6.1 90 90 E 13 20 30.25 1024 10 16.0934 0 0
10:15 pm 22:15 Cloudy 24 -4.6 21 -6.1 89 89 E 14 22 30.24 1024 10 16.0934 0 0
10:35 pm 22:35 Cloudy with Light Snow 23 -4.8 21 -6.2 90 90 E 15 24 30.25 1024 2 3.21868 0 0
10:55 pm 22:55 Cloudy with Light Snow 23 -5 21 -6.1 92 92 E 12 19 30.26 1025 1.25 2.011675 0 0
11:15 pm 23:15 Cloudy with Light Snow 23 -5 21 -6.3 91 91 E 13 20 30.26 1025 1.5 2.41401 0 0
11:35 pm 23:35 Cloudy with Light Snow 23 -5.1 20 -6.4 91 91 E 12 19 30.26 1025 1.5 2.41401 0 0
11:55 pm 23:55 Cloudy with Snow 23 -5.1 21 -6.3 91 91 E 15 24 30.26 1025 1.25 2.011675 0 0

Powered by AerisWeather